{"data":{"norad_id":64463,"intl_designator":"2025-130AB","name":"STARLINK-34400","alt_names":[],"object_type":"PAYLOAD","status":"ACTIVE","operator":null,"country":"US","launch_date":"2025-06-18","launch_site_code":"AFETR","launch_vehicle":null,"mission":null,"orbit_class":"UNKNOWN","rcs_meters":null,"size_class":null,"mass_kg":null,"dimensions":null,"purposes":["comms"],"wikipedia_slug":null,"has_3d_model":false,"image_url":null,"decayed_at":null,"tle_current":{"epoch":"2026-05-25T03:36:16.989696Z","epoch_age_seconds":72247,"freshness":"FRESH","line1":"1 64463U 25130AB  26145.15019664  .00050612  00000+0  17068-2 0  9991","line2":"2 64463  53.1578  95.9252 0001347  85.6190 274.4965 15.30248750 52379","mean_motion":15.3024875,"eccentricity":0.0001347,"inclination_deg":53.1578,"raan_deg":95.9252,"arg_perigee_deg":85.619,"mean_anomaly_deg":274.4965,"bstar":0.0017068,"rev_number":5237,"period_min":94.102347739216,"perigee_km":474.14638765336,"apogee_km":475.99264148839,"semimajor_km":6853.2065145709,"source":"CELESTRAK","updated_at":"2026-05-25T13:38:20.454351Z"}}}